STARLINK-4530 (53393 NORAD) Tracking and Keplerian Element Data

This shows tracking and keplerian element data for the satellite.

Feedback or suggestion? Click here.




ElementValue
Catalog53393
NameSTARLINK-4530
Epoch Orbit1618
Epoch Day325.19923988
Epoch Year2022
RAAN131.2954
Inclination53.2166
Eccentricity0.000244
Argument of Perigee40.3698
Mean Anonmoly319.7475
Mean Motion15.08856289
Decay Rate2.715E-05
L11 53393U 22097F 22325.19923988 .00002715 00000+0 18856-3 0 9991
L22 53393 53.2166 131.2954 0002440 40.3698 319.7475 15.08856289 16187



Live tracking and technical data element details for STARLINK-4530 (NORAD 53393). STARLINK-4530 can be tracked NOW for your location showing map with azimuth and elevation plus other details from your city location.







IsCatalogInMostPopularTable: catalog: 53393, numindb: 7
Update: records affected: 1



GetName: 53393 STARLINK-4530

Hit Count: updated at: Thu, 08 Dec 2022 10:37:58 GMT